Tracking 22283 objects as of 28-Jan-2021
HD Live streaming from Space Station
objects crossing your sky now

STARLINK-1210

Track STARLINK-1210 now!
10-day predictions
STARLINK-1210 is classified as:


NORAD ID: 45207
Int'l Code: 2020-012AF
Perigee: 553.5 km
Apogee: 555.2 km
Inclination: 53.1 °
Period: 95.6 minutes
Semi major axis: 6925 km
RCS: Unknown
Launch date: February 17, 2020
Source: United States (US)
Launch site: AIR FORCE EASTERN TEST RANGE (AFETR)
aabbcc
Your satellite tracking list
Your tracking list is empty




NASA's NSSDC Master Catalog

Two Line Element Set (TLE):
1 45207U 20012AF  21027.73615858  .00000876  00000-0  77682-4 0  9993
2 45207  53.0594 127.6781 0001236  78.6569 281.4559 15.06391697 53729
Source of the keplerian elements: AFSPC